EJU935B LIMC-LIRN

Flight info

Callsign EJU935B
Flight time 1h 2m
Altitude 35000
Route ROBAS DCT LOGDI DCT EKDIR DCT LOMED DCT GENGI DCT EVULI DCT ERIKA
Aircraft A21N/M-SDE2E3FGHIJ1RWXY/LB1

Departure

Time 2026-05-07 15:46
Airport Milan Malpensa International Airport (LIMC)

Arrival

Time 2026-05-07 16:49
Airport Naples International Airport (LIRN)
Time Latitude Longitude Altitude Speed Heading
2026-05-07 14:59 45.64606 8.72521 743 ft 0 kts 259°
2026-05-07 15:32 45.64607 8.72528 741 ft 4 kts 259°
2026-05-07 15:32 45.64611 8.72566 742 ft 4 kts 268°
2026-05-07 15:32 45.64610 8.72596 746 ft 4 kts 262°
2026-05-07 15:32 45.64619 8.72617 742 ft 4 kts 188°
2026-05-07 15:33 45.64643 8.72614 745 ft 4 kts 169°
2026-05-07 15:33 45.64644 8.72613 745 ft 1 kts 169°
2026-05-07 15:33 45.64644 8.72614 745 ft 0 kts 169°
2026-05-07 15:35 45.64631 8.72617 744 ft 4 kts 169°
2026-05-07 15:36 45.64615 8.72622 742 ft 2 kts 169°
2026-05-07 15:36 45.64598 8.72626 743 ft 2 kts 169°
2026-05-07 15:36 45.64567 8.72634 746 ft 6 kts 169°
2026-05-07 15:36 45.64519 8.72647 746 ft 8 kts 169°
2026-05-07 15:37 45.64457 8.72664 745 ft 10 kts 169°
2026-05-07 15:37 45.64380 8.72673 744 ft 12 kts 178°
2026-05-07 15:37 45.64290 8.72693 746 ft 14 kts 169°
2026-05-07 15:37 45.64189 8.72719 746 ft 16 kts 170°
2026-05-07 15:38 45.64078 8.72750 744 ft 17 kts 169°
2026-05-07 15:38 45.63961 8.72779 746 ft 17 kts 195°
2026-05-07 15:38 45.63924 8.72684 746 ft 10 kts 286°
2026-05-07 15:38 45.63901 8.72590 746 ft 12 kts 199°
2026-05-07 15:39 45.63813 8.72606 744 ft 13 kts 168°
2026-05-07 15:39 45.63714 8.72632 744 ft 15 kts 169°
2026-05-07 15:39 45.63604 8.72661 744 ft 17 kts 169°
2026-05-07 15:39 45.63486 8.72693 746 ft 18 kts 169°
2026-05-07 15:40 45.63356 8.72729 746 ft 20 kts 169°
2026-05-07 15:40 45.63217 8.72769 745 ft 21 kts 169°
2026-05-07 15:40 45.63069 8.72810 745 ft 22 kts 169°
2026-05-07 15:40 45.62911 8.72853 746 ft 24 kts 169°
2026-05-07 15:41 45.62745 8.72898 745 ft 25 kts 169°
2026-05-07 15:41 45.62572 8.72945 746 ft 26 kts 169°
2026-05-07 15:41 45.62387 8.72996 747 ft 28 kts 169°
2026-05-07 15:41 45.62194 8.73048 746 ft 29 kts 169°
2026-05-07 15:42 45.61996 8.73104 743 ft 26 kts 169°
2026-05-07 15:42 45.61854 8.73142 747 ft 19 kts 169°
2026-05-07 15:42 45.61739 8.73197 747 ft 18 kts 128°
2026-05-07 15:42 45.61670 8.73353 747 ft 19 kts 124°
2026-05-07 15:43 45.61613 8.73475 743 ft 8 kts 123°
2026-05-07 15:43 45.61589 8.73536 747 ft 8 kts 108°
2026-05-07 15:43 45.61586 8.73596 746 ft 0 kts 85°
2026-05-07 15:44 45.61587 8.73598 746 ft 1 kts 85°
2026-05-07 15:44 45.61591 8.73670 745 ft 10 kts 81°
2026-05-07 15:44 45.61638 8.73732 744 ft 12 kts 348°
2026-05-07 15:45 45.61661 8.73725 744 ft 0 kts 348°
2026-05-07 15:45 45.61676 8.73720 744 ft 13 kts 348°
2026-05-07 15:45 45.62018 8.73630 745 ft 85 kts 348°
2026-05-07 15:46 45.63890 8.73105 767 ft 179 kts 348°
2026-05-07 15:46 45.65096 8.72772 1338 ft 175 kts 350°
2026-05-07 15:46 45.66318 8.72716 1936 ft 178 kts
2026-05-07 15:47 45.67587 8.72783 2490 ft 188 kts
2026-05-07 15:47 45.68957 8.72795 3111 ft 204 kts 359°
2026-05-07 15:47 45.70420 8.72744 3815 ft 215 kts 358°
2026-05-07 15:47 45.71985 8.72657 4392 ft 234 kts
2026-05-07 15:48 45.73511 8.73475 5068 ft 243 kts 42°
2026-05-07 15:48 45.74443 8.75480 5909 ft 244 kts 74°
2026-05-07 15:48 45.74618 8.77890 6796 ft 245 kts 88°
2026-05-07 15:48 45.74621 8.80304 7636 ft 248 kts 99°
2026-05-07 15:49 45.74101 8.82720 8279 ft 260 kts 110°
2026-05-07 15:49 45.73378 8.85109 9073 ft 264 kts 119°
2026-05-07 15:49 45.72315 8.87279 9866 ft 269 kts 128°
2026-05-07 15:49 45.71156 8.89417 10606 ft 274 kts 128°
2026-05-07 15:50 45.69996 8.91600 11347 ft 281 kts 127°
2026-05-07 15:50 45.68781 8.93930 11732 ft 302 kts 127°
2026-05-07 15:50 45.67487 8.96438 12073 ft 324 kts 127°
2026-05-07 15:50 45.66129 8.99089 12674 ft 335 kts 127°
2026-05-07 15:51 45.64742 9.01793 13450 ft 340 kts 129°
2026-05-07 15:51 45.63203 9.04374 14183 ft 343 kts 133°
2026-05-07 15:51 45.61582 9.06919 14908 ft 347 kts 134°
2026-05-07 15:51 45.59941 9.09476 15616 ft 351 kts 134°
2026-05-07 15:52 45.58285 9.12067 16327 ft 355 kts 134°
2026-05-07 15:52 45.56605 9.14691 17046 ft 359 kts 134°
2026-05-07 15:52 45.54933 9.17305 17747 ft 363 kts 134°
2026-05-07 15:52 45.53197 9.20023 18435 ft 367 kts 134°
2026-05-07 15:53 45.51496 9.22688 19027 ft 371 kts 134°
2026-05-07 15:53 45.49747 9.25428 19626 ft 375 kts 134°
2026-05-07 15:53 45.47980 9.28198 20215 ft 379 kts 134°
2026-05-07 15:53 45.46193 9.30990 20810 ft 383 kts 135°
2026-05-07 15:54 45.44390 9.33800 21394 ft 386 kts 135°
2026-05-07 15:54 45.42565 9.36647 21953 ft 390 kts 135°
2026-05-07 15:54 45.40743 9.39485 22544 ft 395 kts 135°
2026-05-07 15:54 45.38856 9.42422 23101 ft 399 kts 135°
2026-05-07 15:55 45.37000 9.45312 23602 ft 403 kts 135°
2026-05-07 15:55 45.35101 9.48266 24049 ft 407 kts 136°
2026-05-07 15:55 45.33182 9.51245 24488 ft 410 kts 136°
2026-05-07 15:55 45.31246 9.54243 24928 ft 413 kts 136°
2026-05-07 15:56 45.29287 9.57258 25345 ft 417 kts 136°
2026-05-07 15:56 45.27308 9.60305 25772 ft 421 kts 136°
2026-05-07 15:56 45.25313 9.63377 26181 ft 424 kts 137°
2026-05-07 15:56 45.23304 9.66473 26589 ft 427 kts 137°
2026-05-07 15:57 45.21282 9.69584 26974 ft 431 kts 137°
2026-05-07 15:57 45.19196 9.72652 27356 ft 431 kts 142°
2026-05-07 15:57 45.16838 9.75236 27731 ft 428 kts 151°
2026-05-07 15:57 45.14401 9.77582 28092 ft 430 kts 152°
2026-05-07 15:58 45.11917 9.79959 28498 ft 432 kts 152°
2026-05-07 15:58 45.09428 9.82367 28889 ft 435 kts 152°
2026-05-07 15:58 45.06924 9.84809 29261 ft 437 kts 152°
2026-05-07 15:58 45.04410 9.87273 29623 ft 440 kts 152°
2026-05-07 15:59 45.01881 9.89753 29981 ft 443 kts 152°
2026-05-07 15:59 44.99366 9.92217 30273 ft 445 kts 152°
2026-05-07 15:59 44.96817 9.94716 30577 ft 447 kts 152°
2026-05-07 15:59 44.94259 9.97225 30870 ft 449 kts 152°
2026-05-07 16:00 44.91687 9.99740 31164 ft 451 kts 152°
2026-05-07 16:00 44.89103 10.02259 31473 ft 452 kts 152°
2026-05-07 16:00 44.86510 10.04790 31759 ft 454 kts 152°
2026-05-07 16:00 44.83906 10.07325 32038 ft 456 kts 152°
2026-05-07 16:01 44.81285 10.09872 32318 ft 458 kts 152°
2026-05-07 16:01 44.78662 10.12420 32627 ft 458 kts 152°
2026-05-07 16:01 44.76041 10.14962 32987 ft 457 kts 152°
2026-05-07 16:01 44.73426 10.17496 33316 ft 456 kts 153°
2026-05-07 16:02 44.70855 10.20006 33705 ft 455 kts 152°
2026-05-07 16:02 44.68293 10.22613 34064 ft 454 kts 151°
2026-05-07 16:02 44.65740 10.25232 34317 ft 453 kts 151°
2026-05-07 16:02 44.63194 10.27854 34572 ft 453 kts 151°
2026-05-07 16:03 44.60653 10.30456 34846 ft 452 kts 151°
2026-05-07 16:03 44.58103 10.33053 35055 ft 453 kts 151°
2026-05-07 16:03 44.55544 10.35651 35076 ft 453 kts 151°
2026-05-07 16:04 44.50463 10.40799 35065 ft 452 kts 151°
2026-05-07 16:04 44.45362 10.45961 35070 ft 452 kts 151°
2026-05-07 16:05 44.40259 10.51108 35066 ft 452 kts 151°
2026-05-07 16:05 44.35164 10.56246 35074 ft 451 kts 151°
2026-05-07 16:06 44.30095 10.61338 35073 ft 451 kts 152°
2026-05-07 16:06 44.24990 10.66445 35094 ft 451 kts 152°
2026-05-07 16:07 44.20006 10.71836 35089 ft 460 kts 141°
2026-05-07 16:07 44.15779 10.78635 35082 ft 465 kts 136°
2026-05-07 16:08 44.11667 10.85516 35079 ft 465 kts 136°
2026-05-07 16:08 44.07511 10.92400 35024 ft 464 kts 137°
2026-05-07 16:09 44.03332 10.99262 35017 ft 463 kts 138°
2026-05-07 16:09 43.98783 11.05487 34987 ft 458 kts 144°
2026-05-07 16:10 43.94130 11.11532 34962 ft 458 kts 144°
2026-05-07 16:10 43.90257 11.16562 34956 ft 457 kts 144°
2026-05-07 16:11 43.85600 11.22607 34947 ft 458 kts 144°
2026-05-07 16:11 43.80971 11.28602 34986 ft 458 kts 144°
2026-05-07 16:12 43.76294 11.34635 34985 ft 459 kts 144°
2026-05-07 16:12 43.71616 11.40670 34981 ft 459 kts 144°
2026-05-07 16:13 43.66938 11.46690 34983 ft 459 kts 144°
2026-05-07 16:13 43.62260 11.52695 34968 ft 459 kts 144°
2026-05-07 16:14 43.57577 11.58699 34981 ft 459 kts 144°
2026-05-07 16:14 43.52914 11.64649 34982 ft 459 kts 144°
2026-05-07 16:15 43.48217 11.70641 34975 ft 459 kts 145°
2026-05-07 16:15 43.43519 11.76613 34978 ft 459 kts 145°
2026-05-07 16:16 43.38850 11.82540 34969 ft 459 kts 145°
2026-05-07 16:16 43.34133 11.88515 34974 ft 460 kts 146°
2026-05-07 16:17 43.29420 11.94469 34979 ft 460 kts 146°
2026-05-07 16:17 43.24702 12.00416 34972 ft 460 kts 146°
2026-05-07 16:18 43.20012 12.06317 34961 ft 460 kts 146°
2026-05-07 16:18 43.15277 12.12268 34959 ft 462 kts 146°
2026-05-07 16:19 43.10533 12.18205 34971 ft 462 kts 146°
2026-05-07 16:19 43.05783 12.24149 34965 ft 462 kts 146°
2026-05-07 16:20 43.01021 12.30085 34962 ft 462 kts 146°
2026-05-07 16:20 42.96300 12.35962 34964 ft 463 kts 146°
2026-05-07 16:21 42.91530 12.41882 34947 ft 464 kts 147°
2026-05-07 16:21 42.86750 12.47799 34957 ft 464 kts 147°
2026-05-07 16:22 42.81974 12.53713 34963 ft 463 kts 147°
2026-05-07 16:22 42.77202 12.59600 34935 ft 462 kts 147°
2026-05-07 16:23 42.72461 12.65432 34957 ft 463 kts 147°
2026-05-07 16:23 42.67645 12.71348 34975 ft 466 kts 147°
2026-05-07 16:24 42.62829 12.77251 34962 ft 465 kts 147°
2026-05-07 16:24 42.57991 12.83161 34989 ft 467 kts 147°
2026-05-07 16:25 42.53164 12.89056 35000 ft 467 kts 147°
2026-05-07 16:25 42.48349 12.94918 34974 ft 467 kts 148°
2026-05-07 16:26 42.43471 13.00848 34988 ft 468 kts 148°
2026-05-07 16:26 42.38665 13.06745 34686 ft 467 kts 146°
2026-05-07 16:26 42.36293 13.09773 34429 ft 470 kts 146°
2026-05-07 16:27 42.33915 13.12815 34167 ft 471 kts 146°
2026-05-07 16:27 42.31536 13.15866 33891 ft 471 kts 146°
2026-05-07 16:27 42.29158 13.18907 33568 ft 470 kts 146°
2026-05-07 16:27 42.26817 13.21898 33023 ft 469 kts 146°
2026-05-07 16:28 42.24451 13.24917 32442 ft 468 kts 146°
2026-05-07 16:28 42.22084 13.27930 31887 ft 467 kts 145°
2026-05-07 16:28 42.19718 13.30941 31335 ft 466 kts 145°
2026-05-07 16:28 42.17357 13.33944 30805 ft 465 kts 145°
2026-05-07 16:29 42.15007 13.36930 30312 ft 464 kts 145°
2026-05-07 16:29 42.12654 13.39918 29753 ft 463 kts 145°
2026-05-07 16:29 42.10315 13.42882 29135 ft 461 kts 145°
2026-05-07 16:29 42.07983 13.45839 28559 ft 458 kts 144°
2026-05-07 16:30 42.05697 13.48732 28015 ft 455 kts 144°
2026-05-07 16:30 42.03406 13.51627 27503 ft 449 kts 144°
2026-05-07 16:30 42.01137 13.54486 27004 ft 445 kts 144°
2026-05-07 16:30 41.98886 13.57323 26480 ft 442 kts 143°
2026-05-07 16:31 41.96647 13.60145 25953 ft 440 kts 143°
2026-05-07 16:31 41.94421 13.62951 25444 ft 437 kts 143°
2026-05-07 16:31 41.92214 13.65730 24935 ft 435 kts 142°
2026-05-07 16:31 41.90001 13.68509 24399 ft 433 kts 142°
2026-05-07 16:32 41.87806 13.71256 23878 ft 431 kts 142°
2026-05-07 16:32 41.85619 13.73993 23306 ft 427 kts 142°
2026-05-07 16:32 41.83463 13.76698 22732 ft 422 kts 142°
2026-05-07 16:32 41.81336 13.79360 22191 ft 415 kts 142°
2026-05-07 16:33 41.79235 13.81986 21652 ft 410 kts 142°
2026-05-07 16:33 41.77166 13.84572 21112 ft 404 kts 142°
2026-05-07 16:33 41.75151 13.87086 20612 ft 396 kts 142°
2026-05-07 16:33 41.73144 13.89575 20156 ft 390 kts 141°
2026-05-07 16:34 41.71165 13.92030 19721 ft 386 kts 141°
2026-05-07 16:34 41.69140 13.94538 19279 ft 408 kts 141°
2026-05-07 16:34 41.67058 13.97117 18818 ft 407 kts 141°
2026-05-07 16:34 41.64994 13.99680 18338 ft 401 kts 141°
2026-05-07 16:35 41.62903 14.02270 17802 ft 418 kts 140°
2026-05-07 16:35 41.60867 14.05059 17180 ft 417 kts 136°
2026-05-07 16:35 41.58905 14.07916 16611 ft 417 kts 136°
2026-05-07 16:35 41.56957 14.10765 16119 ft 414 kts 136°
2026-05-07 16:36 41.55023 14.13593 15668 ft 411 kts 135°
2026-05-07 16:36 41.53102 14.16405 15258 ft 407 kts 136°
2026-05-07 16:36 41.51202 14.19173 14844 ft 402 kts 135°
2026-05-07 16:36 41.49314 14.21915 14408 ft 399 kts 136°
2026-05-07 16:37 41.47442 14.24624 13966 ft 395 kts 136°
2026-05-07 16:37 41.45606 14.27274 13538 ft 393 kts 136°
2026-05-07 16:37 41.43758 14.29941 13102 ft 391 kts 135°
2026-05-07 16:37 41.41876 14.32556 12944 ft 388 kts 140°
2026-05-07 16:38 41.39826 14.34794 12559 ft 377 kts 146°
2026-05-07 16:38 41.37706 14.36871 11786 ft 378 kts 146°
2026-05-07 16:38 41.35580 14.38922 11245 ft 375 kts 146°
2026-05-07 16:38 41.33505 14.40932 10937 ft 362 kts 146°
2026-05-07 16:39 41.31531 14.42848 10690 ft 349 kts 146°
2026-05-07 16:39 41.29608 14.44718 10452 ft 337 kts 146°
2026-05-07 16:39 41.27725 14.46549 10199 ft 326 kts 145°
2026-05-07 16:39 41.25946 14.48276 9967 ft 316 kts 145°
2026-05-07 16:40 41.24198 14.49972 9728 ft 307 kts 145°
2026-05-07 16:40 41.22499 14.51624 9471 ft 299 kts 145°
2026-05-07 16:40 41.20837 14.53237 9236 ft 290 kts 145°
2026-05-07 16:40 41.19198 14.54734 8968 ft 283 kts 147°
2026-05-07 16:41 41.17564 14.56179 8581 ft 280 kts 147°
2026-05-07 16:41 41.15960 14.57593 8199 ft 278 kts 147°
2026-05-07 16:41 41.14349 14.59015 7830 ft 277 kts 147°
2026-05-07 16:41 41.12751 14.60429 7451 ft 275 kts 146°
2026-05-07 16:42 41.11163 14.61833 7110 ft 274 kts 146°
2026-05-07 16:42 41.09602 14.63216 6992 ft 264 kts 146°
2026-05-07 16:42 41.08107 14.64500 6959 ft 248 kts 151°
2026-05-07 16:42 41.06523 14.65050 6947 ft 228 kts 185°
2026-05-07 16:43 41.05102 14.64341 6895 ft 220 kts 219°
2026-05-07 16:43 41.04115 14.62823 6607 ft 222 kts 236°
2026-05-07 16:43 41.03349 14.61042 6256 ft 222 kts 240°
2026-05-07 16:43 41.02633 14.59234 5881 ft 222 kts 240°
2026-05-07 16:44 41.01897 14.57446 5517 ft 221 kts 239°
2026-05-07 16:44 41.01108 14.55708 5157 ft 220 kts 237°
2026-05-07 16:44 41.00314 14.54003 4886 ft 213 kts 237°
2026-05-07 16:44 40.99540 14.52350 4573 ft 211 kts 237°
2026-05-07 16:45 40.98766 14.50701 4219 ft 210 kts 237°
2026-05-07 16:45 40.98003 14.49073 3890 ft 207 kts 238°
2026-05-07 16:45 40.97248 14.47465 3564 ft 204 kts 238°
2026-05-07 16:45 40.96507 14.45887 3236 ft 198 kts 239°
2026-05-07 16:46 40.95795 14.44369 2921 ft 190 kts 239°
2026-05-07 16:46 40.95110 14.42910 2658 ft 184 kts 239°
2026-05-07 16:46 40.94436 14.41475 2395 ft 183 kts 239°
2026-05-07 16:46 40.93773 14.40064 2140 ft 176 kts 239°
2026-05-07 16:47 40.93153 14.38743 1917 ft 164 kts 240°
2026-05-07 16:47 40.92569 14.37500 1677 ft 154 kts 240°
2026-05-07 16:47 40.92011 14.36311 1444 ft 152 kts 239°
2026-05-07 16:47 40.91458 14.35135 1243 ft 149 kts 240°
2026-05-07 16:48 40.90908 14.33966 1008 ft 149 kts 240°
2026-05-07 16:48 40.90364 14.32808 748 ft 153 kts 240°
2026-05-07 16:48 40.89809 14.31619 589 ft 150 kts 239°
2026-05-07 16:48 40.89255 14.30462 334 ft 148 kts 239°
2026-05-07 16:49 40.88739 14.29366 265 ft 118 kts 239°
2026-05-07 16:49 40.88457 14.28769 280 ft 45 kts 236°
2026-05-07 16:49 40.88358 14.28561 285 ft 20 kts 234°
2026-05-07 16:49 40.88245 14.28443 288 ft 20 kts 212°
2026-05-07 16:50 40.88119 14.28337 293 ft 23 kts 212°
2026-05-07 16:50 40.88063 14.28320 296 ft 6 kts 104°
2026-05-07 16:50 40.88056 14.28383 297 ft 8 kts 97°
2026-05-07 16:50 40.88049 14.28461 291 ft 9 kts 96°
2026-05-07 16:51 40.88030 14.28535 294 ft 7 kts 160°
2026-05-07 16:51 40.87975 14.28502 293 ft 10 kts 214°
2026-05-07 16:51 40.87936 14.28418 293 ft 13 kts 279°
2026-05-07 16:51 40.87947 14.28316 295 ft 7 kts 276°
2026-05-07 16:52 40.87909 14.28287 297 ft 6 kts 181°
2026-05-07 16:52 40.87885 14.28285 296 ft 3 kts 186°
2026-05-07 16:52 40.87880 14.28284 296 ft 0 kts 186°